• en France
  • Liste des pays
  • À 7 jours
  • Température de l'eau
  • Carte satellitaire
  • Carte météo
  • Widgets météo
  • user-avatar
    Se connecter

    Météo par heure à Warpuny

    Ce jour, 23 Octobre, Mardi

    Heure Température Précipitation Vent Pression Humidité
    00:00 +4°C° 0 mm 3 m/s 751 mmHg 89%
    01:00 +3°C° 0 mm 4 m/s 751 mmHg 91%
    02:00 +4°C° 0 mm 4 m/s 750 mmHg 90%
    03:00 +3°C° 0 mm 5 m/s 749 mmHg 89%
    04:00 +3°C° 0 mm 5 m/s 748 mmHg 87%
    05:00 +3°C° 0.1 mm 6 m/s 747 mmHg 86%
    06:00 +3°C° 0.1 mm 6 m/s 746 mmHg 84%
    07:00 +2°C° 0 mm 8 m/s 745 mmHg 83%
    08:00 +2°C° 1.1 mm 8 m/s 743 mmHg 82%
    09:00 +2°C° 1.1 mm 9 m/s 741 mmHg 81%
    10:00 +3°C° 1.1 mm 9 m/s 740 mmHg 80%
    11:00 +3°C° 1.4 mm 10 m/s 738 mmHg 80%
    12:00 +3°C° 1.4 mm 10 m/s 737 mmHg 80%
    13:00 +5°C° 1.4 mm 10 m/s 735 mmHg 80%
    14:00 +5°C° 1 mm 9 m/s 734 mmHg 82%
    15:00 +6°C° 1 mm 9 m/s 733 mmHg 84%
    16:00 +6°C° 1 mm 8 m/s 731 mmHg 87%
    17:00 +6°C° 0.6 mm 7 m/s 731 mmHg 85%
    18:00 +6°C° 0.6 mm 7 m/s 730 mmHg 84%
    19:00 +7°C° 0.6 mm 6 m/s 730 mmHg 82%
    20:00 +7°C° 0.5 mm 6 m/s 730 mmHg 82%
    21:00 +5°C° 0.5 mm 6 m/s 730 mmHg 82%
    22:00 +6°C° 0.5 mm 5 m/s 730 mmHg 81%
    23:00 +6°C° 0.4 mm 5 m/s 730 mmHg 82%

    Demain, 24 Octobre, Mercredi

    Heure Température Précipitation Vent Pression Humidité
    00:00 +5°C° 0.4 mm 5 m/s 729 mmHg 82%
    01:00 +5°C° 0.4 mm 5 m/s 729 mmHg 83%
    02:00 +5°C° 0.2 mm 5 m/s 729 mmHg 81%
    03:00 +4°C° 0.2 mm 6 m/s 730 mmHg 80%
    04:00 +3°C° 0.2 mm 6 m/s 730 mmHg 79%
    05:00 +3°C° 0.1 mm 7 m/s 730 mmHg 76%
    06:00 +2°C° 0.1 mm 8 m/s 731 mmHg 73%
    07:00 +2°C° 0.1 mm 8 m/s 731 mmHg 70%
    08:00 +2°C° 0.2 mm 9 m/s 731 mmHg 70%
    09:00 +3°C° 0.2 mm 11 m/s 732 mmHg 69%
    10:00 +3°C° 0.2 mm 12 m/s 732 mmHg 68%
    11:00 +3°C° 0.4 mm 12 m/s 733 mmHg 69%
    12:00 +3°C° 0.4 mm 12 m/s 733 mmHg 70%
    13:00 +4°C° 0.4 mm 12 m/s 734 mmHg 71%
    14:00 +4°C° 0.4 mm 12 m/s 735 mmHg 72%
    15:00 +4°C° 0.4 mm 11 m/s 736 mmHg 72%
    16:00 +4°C° 0.4 mm 11 m/s 737 mmHg 72%
    17:00 +3°C° 0.3 mm 10 m/s 738 mmHg 72%
    18:00 +3°C° 0.3 mm 9 m/s 738 mmHg 72%
    19:00 +3°C° 0.3 mm 9 m/s 739 mmHg 72%
    20:00 +4°C° 0.1 mm 8 m/s 740 mmHg 74%
    21:00 +3°C° 0.1 mm 7 m/s 740 mmHg 75%
    22:00 +3°C° 0.1 mm 6 m/s 741 mmHg 76%
    23:00 +3°C° 0 mm 6 m/s 741 mmHg 78%

    Après-demain, 25 Octobre, Jeudi

    Heure Température Précipitation Vent Pression Humidité
    00:00 +3°C° 0 mm 5 m/s 741 mmHg 80%
    01:00 +2°C° 0 mm 5 m/s 741 mmHg 82%
    02:00 +3°C° 0 mm 4 m/s 741 mmHg 81%
    03:00 +3°C° 0 mm 4 m/s 741 mmHg 81%
    04:00 +3°C° 0 mm 4 m/s 741 mmHg 81%
    05:00 +3°C° 0 mm 4 m/s 740 mmHg 81%
    06:00 +1°C° 0 mm 4 m/s 740 mmHg 82%
    07:00 +1°C° 0 mm 4 m/s 739 mmHg 82%
    08:00 +1°C° 0.6 mm 4 m/s 738 mmHg 83%
    09:00 +2°C° 0.6 mm 5 m/s 737 mmHg 84%
    10:00 +3°C° 0.6 mm 5 m/s 736 mmHg 85%
    11:00 +4°C° 0.6 mm 6 m/s 736 mmHg 83%
    12:00 +5°C° 0.6 mm 6 m/s 735 mmHg 81%
    13:00 +8°C° 0.6 mm 7 m/s 734 mmHg 79%
    14:00 +7°C° 0.2 mm 6 m/s 734 mmHg 79%
    15:00 +7°C° 0.2 mm 6 m/s 734 mmHg 79%
    16:00 +7°C° 0.2 mm 6 m/s 734 mmHg 79%
    17:00 +6°C° 0.1 mm 5 m/s 735 mmHg 82%
    18:00 +6°C° 0.1 mm 5 m/s 736 mmHg 85%
    19:00 +5°C° 0.1 mm 4 m/s 736 mmHg 88%
    20:00 +5°C° 0.1 mm 4 m/s 737 mmHg 88%
    21:00 +5°C° 0.1 mm 4 m/s 737 mmHg 88%
    22:00 +5°C° 0.1 mm 4 m/s 737 mmHg 89%
    23:00 +5°C° 0.1 mm 4 m/s 737 mmHg 88%

    26 Octobre, Vendredi

    Heure Température Précipitation Vent Pression Humidité
    00:00 +5°C° 0.1 mm 4 m/s 738 mmHg 87%
    01:00 +5°C° 0.1 mm 5 m/s 738 mmHg 86%
    02:00 +5°C° 0 mm 5 m/s 738 mmHg 88%
    03:00 +4°C° 0 mm 4 m/s 738 mmHg 89%
    04:00 +4°C° 0 mm 4 m/s 739 mmHg 90%
    05:00 +4°C° 0 mm 4 m/s 739 mmHg 91%
    06:00 +4°C° 0 mm 3 m/s 739 mmHg 92%
    07:00 +3°C° 0 mm 3 m/s 739 mmHg 93%
    08:00 +5°C° 0 mm 4 m/s 739 mmHg 89%
    09:00 +6°C° 0 mm 4 m/s 740 mmHg 84%
    10:00 +7°C° 0 mm 4 m/s 740 mmHg 80%
    11:00 +8°C° 0 mm 5 m/s 739 mmHg 77%
    12:00 +8°C° 0 mm 5 m/s 739 mmHg 73%
    13:00 +8°C° 0 mm 5 m/s 738 mmHg 70%
    14:00 +8°C° 0.1 mm 5 m/s 738 mmHg 71%
    15:00 +7°C° 0.1 mm 5 m/s 737 mmHg 73%
    16:00 +7°C° 0.1 mm 4 m/s 737 mmHg 75%
    17:00 +7°C° 0.1 mm 5 m/s 736 mmHg 78%
    18:00 +7°C° 0.1 mm 6 m/s 736 mmHg 82%
    19:00 +8°C° 0.1 mm 6 m/s 735 mmHg 86%
    20:00 +8°C° 0.2 mm 7 m/s 735 mmHg 84%
    21:00 +8°C° 0.2 mm 7 m/s 734 mmHg 83%
    22:00 +8°C° 0.2 mm 7 m/s 734 mmHg 81%
    23:00 +6°C° 0.2 mm 7 m/s 733 mmHg 80%

    27 Octobre, Samedi

    Heure Température Précipitation Vent Pression Humidité
    00:00 +6°C° 0.2 mm 8 m/s 733 mmHg 78%
    01:00 +6°C° 0.2 mm 9 m/s 733 mmHg 76%
    02:00 +5°C° 0.1 mm 9 m/s 733 mmHg 76%
    03:00 +5°C° 0.1 mm 8 m/s 733 mmHg 75%
    04:00 +4°C° 0.1 mm 8 m/s 733 mmHg 74%
    05:00 +3°C° 0 mm 9 m/s 733 mmHg 73%
    06:00 +3°C° 0 mm 9 m/s 733 mmHg 71%
    07:00 +3°C° 0 mm 9 m/s 733 mmHg 70%
    08:00 +3°C° 0.1 mm 10 m/s 733 mmHg 68%
    09:00 +4°C° 0.1 mm 11 m/s 734 mmHg 67%
    10:00 +4°C° 0.1 mm 11 m/s 734 mmHg 65%
    11:00 +4°C° 0.1 mm 11 m/s 735 mmHg 66%
    12:00 +5°C° 0.1 mm 10 m/s 736 mmHg 66%
    13:00 +6°C° 0.1 mm 9 m/s 738 mmHg 67%
    14:00 +5°C° 0.2 mm 7 m/s 739 mmHg 70%
    15:00 +5°C° 0.2 mm 6 m/s 740 mmHg 72%
    16:00 +5°C° 0.2 mm 5 m/s 741 mmHg 75%
    17:00 +5°C° 0.2 mm 4 m/s 741 mmHg 77%
    18:00 +4°C° 0.2 mm 3 m/s 742 mmHg 80%
    19:00 +4°C° 0.2 mm 3 m/s 743 mmHg 83%
    20:00 +4°C° 0.1 mm 2 m/s 743 mmHg 85%
    21:00 +4°C° 0.1 mm 2 m/s 744 mmHg 86%
    22:00 +4°C° 0.1 mm 2 m/s 745 mmHg 88%
    23:00 +3°C° 0 mm 2 m/s 745 mmHg 89%

    28 Octobre, Dimanche

    Heure Température Précipitation Vent Pression Humidité
    00:00 +3°C° 0 mm 2 m/s 745 mmHg 91%
    01:00 +3°C° 0 mm 2 m/s 745 mmHg 92%
    02:00 +3°C° 0 mm 1 m/s 746 mmHg 92%
    03:00 +3°C° 0 mm 1 m/s 746 mmHg 92%
    04:00 +3°C° 0 mm 1 m/s 747 mmHg 92%
    05:00 +3°C° 0 mm 1 m/s 747 mmHg 92%
    06:00 +3°C° 0 mm 1 m/s 747 mmHg 92%
    07:00 +3°C° 0 mm 1 m/s 748 mmHg 92%
    08:00 +4°C° 0 mm 1 m/s 748 mmHg 85%
    09:00 +5°C° 0 mm 1 m/s 748 mmHg 79%
    10:00 +6°C° 0 mm 2 m/s 749 mmHg 72%
    11:00 +6°C° 0 mm 2 m/s 749 mmHg 70%
    12:00 +6°C° 0 mm 2 m/s 749 mmHg 68%
    13:00 +7°C° 0 mm 3 m/s 749 mmHg 65%
    14:00 +5°C° 0 mm 3 m/s 749 mmHg 68%
    15:00 +4°C° 0 mm 3 m/s 749 mmHg 71%
    16:00 +4°C° 0 mm 3 m/s 749 mmHg 74%
    17:00 +4°C° 0 mm 3 m/s 749 mmHg 75%
    18:00 +3°C° 0 mm 4 m/s 749 mmHg 75%
    19:00 +3°C° 0 mm 4 m/s 749 mmHg 76%
    20:00 +3°C° 0 mm 4 m/s 749 mmHg 76%
    21:00 +2°C° 0 mm 5 m/s 749 mmHg 75%
    22:00 +2°C° 0 mm 5 m/s 749 mmHg 75%
    23:00 +2°C° 0 mm 5 m/s 749 mmHg 75%

    29 Octobre, Lundi

    Heure Température Précipitation Vent Pression Humidité
    00:00 +2°C° 0 mm 6 m/s 749 mmHg 76%
    01:00 +1°C° 0 mm 6 m/s 749 mmHg 76%
    02:00 0°C° 0.5 mm 7 m/s 748 mmHg 77%
    03:00 0°C° 0.5 mm 7 m/s 748 mmHg 78%
    04:00 0°C° 0.5 mm 7 m/s 748 mmHg 80%
    05:00 0°C° 0.8 mm 7 m/s 747 mmHg 81%
    06:00 -1°C° 0.8 mm 8 m/s 747 mmHg 83%
    07:00 -1°C° 0.8 mm 8 m/s 747 mmHg 85%
    08:00 -1°C° 1.1 mm 8 m/s 746 mmHg 86%
    09:00 -1°C° 1.1 mm 8 m/s 746 mmHg 87%
    10:00 -1°C° 1.1 mm 8 m/s 746 mmHg 89%
    11:00 -1°C° 1.1 mm 8 m/s 746 mmHg 90%
    12:00 -1°C° 1.1 mm 8 m/s 745 mmHg 90%
    13:00 -1°C° 1.1 mm 8 m/s 745 mmHg 91%
    14:00 -1°C° 1.1 mm 8 m/s 744 mmHg 92%
    15:00 -1°C° 1.1 mm 8 m/s 744 mmHg 92%
    16:00 -2°C° 1.1 mm 8 m/s 744 mmHg 93%
    17:00 -2°C° 0.7 mm 8 m/s 743 mmHg 93%
    18:00 -2°C° 0.7 mm 7 m/s 743 mmHg 94%
    19:00 -2°C° 0.7 mm 7 m/s 743 mmHg 95%
    20:00 -2°C° 0.5 mm 7 m/s 743 mmHg 95%
    21:00 -2°C° 0.5 mm 6 m/s 742 mmHg 96%
    22:00 -1°C° 0.5 mm 6 m/s 742 mmHg 96%
    23:00 -1°C° 0.1 mm 6 m/s 742 mmHg 96%
    Voir plus